This is the latest recevied weather packets stored in our database for station/object IK6IHU-3. If no packets are shown the sender has not sent any weather packets the latest 10 day(s).
| Time | Temp. | Humidity | Pressure | Rain* | Wind** | Luminosity | Snow |
|---|---|---|---|---|---|---|---|
| 1777797738 | 20.56° C | 38% | 1019.3 hPa | 0 mm | - | 0 W/m² | - |
| 1777797678 | 20.56° C | 37% | 1019.2 hPa | 0 mm | - | 0 W/m² | - |
| 1777797618 | 20.56° C | 38% | 1019.3 hPa | 0 mm | - | 0 W/m² | - |
| 1777797558 | 20.56° C | 38% | 1019.3 hPa | 0 mm | - | 0 W/m² | - |
| 1777797498 | 20.56° C | 40% | 1019.3 hPa | 0 mm | - | 0 W/m² | - |
| 1777797438 | 20.56° C | 40% | 1019.3 hPa | 0 mm | - | 0 W/m² | - |
| 1777797378 | 20.56° C | 39% | 1019.2 hPa | 0 mm | - | 0 W/m² | - |
| 1777797318 | 20.56° C | 38% | 1019.3 hPa | 0 mm | - | 0 W/m² | - |
| 1777797258 | 20.56° C | 38% | 1019.3 hPa | 0 mm | - | 0 W/m² | - |
| 1777797198 | 20° C | 37% | 1019.1 hPa | 0 mm | - | 0 W/m² | - |
| 1777797138 | 20° C | 40% | 1019.1 hPa | 0 mm | - | 0 W/m² | - |
| 1777797078 | 20° C | 36% | 1019.1 hPa | 0 mm | - | 0 W/m² | - |
| 1777797018 | 20° C | 37% | 1019.2 hPa | 0 mm | - | 0 W/m² | - |
| 1777796958 | 19.44° C | 36% | 1019.3 hPa | 0 mm | - | 0 W/m² | - |
| 1777796898 | 20.56° C | 40% | 1019.1 hPa | 0 mm | - | 0 W/m² | - |
| 1777796838 | 20° C | 37% | 1019.4 hPa | 0 mm | - | 0 W/m² | - |
| 1777796778 | 20° C | 36% | 1019.2 hPa | 0 mm | - | 0 W/m² | - |
| 1777796718 | 19.44° C | 36% | 1019.3 hPa | 0 mm | - | 0 W/m² | - |
| 1777796658 | 19.44° C | 37% | 1019.3 hPa | 0 mm | - | 0 W/m² | - |
| 1777796598 | 19.44° C | 36% | 1019.3 hPa | 0 mm | - | 0 W/m² | - |
| 1777796538 | 19.44° C | 38% | 1019.3 hPa | 0 mm | - | 0 W/m² | - |
| 1777796478 | 19.44° C | 36% | 1019.4 hPa | 0 mm | - | 0 W/m² | - |
| 1777796418 | 19.44° C | 39% | 1019.3 hPa | 0 mm | - | 0 W/m² | - |
| 1777796358 | 19.44° C | 38% | 1019.3 hPa | 0 mm | - | 0 W/m² | - |
| 1777796298 | 19.44° C | 38% | 1019.3 hPa | 0 mm | - | 0 W/m² | - |
* Rain latest hour (hover to see other rain measurements)
** Current wind speed in m/s (hover to see current wind gust speed)